STARLINK-32676, 62426

Orbit data source: Space-Track

STARLINK-32676, 62426 is a payload satellite owned by SpaceX/Seattle (US) in LEO that was launched on Mon, 23 Dec 2024 UTC via an FALCON 9 launch vehicle from the Air Force Eastern Test Range (AFETR). Payload-class satellites include a variety of spacecraft equipped with specific instruments for various scientific and technological missions. These include communications satellites like Starlink; space stations such as the ISS; scientific satellites like the Hubble; Earth observation satellites from companies like Planet Labs, Umbra, and HawkEye 360; GPS; miniature CubeSats for education and research; and military/defense satellites.

Loading next visibility...
Identifier
62426, 2024-249T
Orbit
LEO
Country
Flag of USUS
Related business
Manufacturer
SpaceX/Seattle
Mission
Operational Commercial Communications
Bus & Motor
STARLINK V2M, Unknown motor
Mass
730 kg wet, ~700 kg dry
Launch date (UTC)
2024-12-23 (1 year ago)
Launch vehicle
FALCON 9
Launch site
Air Force Eastern Test Range (AFETR)
Object type
Payload
Rocket body
Debris
Shape & HBR
Box + 2 Pan, 17.7 m
Radar Cross Section
33.884 m², Large (>1 m²)

Expand to show TLE details & history
Last TLE update: 17 hours ago

TLE from 17 hours ago
0 STARLINK-32676
1 62426U 24249T   26171.12202437  .00014245  00000-0  52590-3 0  9999
2 62426  43.0031  96.0827 0001354 276.6566  83.4131 15.27597367 83470
Epoch: 2026-06-20T02:55Z
TLE epoch observation values (Epoch: 2026-06-20T02:55:42.905Z)
Latitude
-0.00006°
Longitude
143.81268°
Altitude
482.666 km
Speed
7.626 km/s
True Right ascension
06h 24m 19s
True Declination
0° 00' 00"
Sunlit
Object was in daylight at epoch
Visualization orbit readout
Latitude
Unknown
Longitude
Unknown
Altitude
Unknown
Speed
Unknown
Apparent Right ascension
Unknown
Apparent Declination
Unknown
Sunlit
N/A
Visualization observer readout
Local Sidereal Time
07:18:19
Azimuth
Unknown
Elevation
Unknown
Doppler factor
Unknown
Orbital elements
Apogee altitude
485.871 km
Perigee altitude
484.013 km
Semi-major axis
6,863.079 km
Eccentricity
0.00014
Inclination
43.0031°
RAAN
96.0827°
Arg. of periapsis
276.6566°
True anomaly
83.42851°
Mean anomaly
83.4131°
Eccentric anomaly
83.42081°
Mean motion
3.81737 °/min
Orbital period
94.31 mins
BSTAR
0.0005259
Loading maneuver chart data...
Computing Atmospheric mass density...
Loading historical data...
Loading historical data...
Loading historical data...
Loading historical data...
Loading historical data...
Loading historical data...
Loading historical data...

Documentation

Showing up to 5 results
|